TimeCST,TemperatureF,Dew PointF,Humidity,Sea Level PressureIn,VisibilityMPH,Wind Direction,Wind SpeedMPH,Gust SpeedMPH,PrecipitationIn,Events,Conditions,WindDirDegrees,DateUTC
12:15 AM,28.4,23.0,80,30.35,10.0,North,-9999.0,-,N/A,,Clear,0,2013-01-17 06:15:00
12:35 AM,28.4,23.0,80,30.36,10.0,North,-9999.0,-,N/A,,Clear,0,2013-01-17 06:35:00
12:55 AM,28.4,23.0,80,30.36,10.0,North,-9999.0,-,N/A,,Clear,0,2013-01-17 06:55:00
1:15 AM,28.4,23.0,80,30.37,10.0,North,-9999.0,-,N/A,,Clear,0,2013-01-17 07:15:00
1:35 AM,28.4,23.0,80,30.37,10.0,North,-9999.0,-,N/A,,Clear,0,2013-01-17 07:35:00
1:55 AM,28.4,23.0,80,30.38,10.0,North,-9999.0,-,N/A,,Clear,0,2013-01-17 07:55:00
2:15 AM,30.2,23.0,75,30.39,10.0,North,-9999.0,-,N/A,,Clear,0,2013-01-17 08:15:00
2:35 AM,28.4,23.0,80,30.40,10.0,North,-9999.0,-,N/A,,Clear,0,2013-01-17 08:35:00
2:55 AM,28.4,23.0,80,30.41,10.0,North,-9999.0,-,N/A,,Clear,0,2013-01-17 08:55:00
3:15 AM,26.6,21.2,80,30.41,10.0,North,-9999.0,-,N/A,,Clear,0,2013-01-17 09:15:00
3:35 AM,28.4,23.0,80,30.41,10.0,North,-9999.0,-,N/A,,Clear,0,2013-01-17 09:35:00
3:55 AM,28.4,23.0,80,30.41,10.0,North,-9999.0,-,N/A,,Clear,0,2013-01-17 09:55:00
4:15 AM,28.4,23.0,80,30.41,10.0,North,-9999.0,-,N/A,,Clear,0,2013-01-17 10:15:00
4:35 AM,28.4,23.0,80,30.41,10.0,North,-9999.0,-,N/A,,Clear,0,2013-01-17 10:35:00
4:55 AM,26.6,23.0,86,30.42,10.0,North,-9999.0,-,N/A,,Clear,0,2013-01-17 10:55:00
5:15 AM,26.6,21.2,80,30.41,10.0,North,-9999.0,-,N/A,,Clear,0,2013-01-17 11:15:00
5:35 AM,26.6,21.2,80,30.42,10.0,North,-9999.0,-,N/A,,Clear,0,2013-01-17 11:35:00
5:55 AM,24.8,21.2,86,30.42,10.0,North,-9999.0,-,N/A,,Clear,0,2013-01-17 11:55:00
6:15 AM,24.8,21.2,86,30.43,10.0,North,-9999.0,-,N/A,,Clear,0,2013-01-17 12:15:00
6:35 AM,24.8,21.2,86,30.44,10.0,North,-9999.0,-,N/A,,Clear,0,2013-01-17 12:35:00
6:55 AM,26.6,21.2,80,30.45,10.0,North,-9999.0,-,N/A,,Clear,0,2013-01-17 12:55:00
7:15 AM,26.6,21.2,80,30.45,10.0,North,-9999.0,-,N/A,,Clear,0,2013-01-17 13:15:00
7:35 AM,26.6,21.2,80,30.45,10.0,North,-9999.0,-,N/A,,Clear,0,2013-01-17 13:35:00
7:55 AM,26.6,21.2,80,30.46,10.0,North,-9999.0,-,N/A,,Clear,0,2013-01-17 13:55:00
8:15 AM,26.6,21.2,80,30.47,10.0,North,-9999.0,-,N/A,,Clear,0,2013-01-17 14:15:00
8:35 AM,26.6,21.2,80,30.48,10.0,North,-9999.0,-,N/A,,Clear,0,2013-01-17 14:35:00
8:55 AM,30.2,23.0,75,30.50,10.0,North,-9999.0,-,N/A,,Clear,0,2013-01-17 14:55:00
9:15 AM,32.0,23.0,69,30.51,10.0,North,-9999.0,-,N/A,,Clear,0,2013-01-17 15:15:00
9:35 AM,32.0,26.6,80,30.52,10.0,North,-9999.0,-,N/A,,Clear,0,2013-01-17 15:35:00
9:55 AM,35.6,28.4,75,30.53,10.0,North,-9999.0,-,N/A,,Clear,0,2013-01-17 15:55:00
10:15 AM,39.2,26.6,61,30.54,10.0,North,-9999.0,-,N/A,,Clear,0,2013-01-17 16:15:00
10:35 AM,41.0,26.6,57,30.55,10.0,North,-9999.0,-,N/A,,Clear,0,2013-01-17 16:35:00
10:55 AM,42.8,26.6,53,30.55,10.0,North,-9999.0,-,N/A,,Clear,0,2013-01-17 16:55:00
11:15 AM,44.6,26.6,49,30.54,10.0,North,-9999.0,-,N/A,,Clear,0,2013-01-17 17:15:00
11:35 AM,44.6,26.6,49,30.53,10.0,North,-9999.0,-,N/A,,Clear,0,2013-01-17 17:35:00
11:55 AM,46.4,23.0,40,30.52,10.0,North,-9999.0,-,N/A,,Clear,0,2013-01-17 17:55:00
12:15 PM,48.2,23.0,37,30.51,10.0,North,-9999.0,-,N/A,,Clear,0,2013-01-17 18:15:00
12:35 PM,50.0,21.2,32,30.49,10.0,North,-9999.0,-,N/A,,Clear,0,2013-01-17 18:35:00
12:55 PM,50.0,21.2,32,30.48,10.0,North,-9999.0,-,N/A,,Clear,0,2013-01-17 18:55:00
1:15 PM,50.0,21.2,32,30.47,10.0,North,-9999.0,-,N/A,,Clear,0,2013-01-17 19:15:00
1:35 PM,51.8,23.0,33,30.46,10.0,North,-9999.0,-,N/A,,Clear,0,2013-01-17 19:35:00
1:55 PM,51.8,21.2,30,30.46,10.0,North,-9999.0,-,N/A,,Clear,0,2013-01-17 19:55:00
2:15 PM,51.8,21.2,30,30.45,10.0,North,-9999.0,-,N/A,,Clear,0,2013-01-17 20:15:00
2:35 PM,51.8,19.4,28,30.44,10.0,North,-9999.0,-,N/A,,Clear,0,2013-01-17 20:35:00
2:55 PM,51.8,19.4,28,30.44,10.0,North,-9999.0,-,N/A,,Clear,0,2013-01-17 20:55:00
3:15 PM,51.8,19.4,28,30.43,10.0,North,-9999.0,-,N/A,,Clear,0,2013-01-17 21:15:00
3:35 PM,53.6,21.2,28,30.43,10.0,North,-9999.0,-,N/A,,Clear,0,2013-01-17 21:35:00
3:55 PM,53.6,19.4,26,30.43,10.0,North,-9999.0,-,N/A,,Clear,0,2013-01-17 21:55:00
4:55 PM,51.8,21.2,30,30.43,10.0,North,-9999.0,-,N/A,,Clear,0,2013-01-17 22:55:00
5:35 PM,50.0,21.2,32,30.43,10.0,North,-9999.0,-,N/A,,Clear,0,2013-01-17 23:35:00
7:55 PM,33.8,23.0,65,30.45,10.0,North,-9999.0,-,N/A,,Clear,0,2013-01-18 01:55:00
8:15 PM,33.8,23.0,65,30.45,10.0,North,-9999.0,-,N/A,,Clear,0,2013-01-18 02:15:00
8:55 PM,33.8,23.0,65,30.46,10.0,North,-9999.0,-,N/A,,Clear,0,2013-01-18 02:55:00
9:15 PM,33.8,23.0,65,30.45,10.0,North,-9999.0,-,N/A,,Clear,0,2013-01-18 03:15:00
9:35 PM,33.8,23.0,65,30.46,10.0,North,-9999.0,-,N/A,,Clear,0,2013-01-18 03:35:00
9:55 PM,32.0,23.0,69,30.45,10.0,North,-9999.0,-,N/A,,Clear,0,2013-01-18 03:55:00